Hourly Data Report for January 02, 2022

IQALUIT CLIMATE
NUNAVUT
Current Station Operator: ECCC - MSC

63°44'50.000" N
68°32'40.000" W
33.50 m
2402592
71321
XFB

Download Data

Hourly Data (January 2022)
Hourly Data Report for January 2, 2022
TIME
LST
Temp Definition
°C
Dew Point Definition
°C
Rel Hum Definition
%
Precip. Amount Definition
mm

Wind Dir Definition
10's deg

Wind Spd Definition
km/h
Visibility Definition
km
Stn Press Definition
kPa
Hmdx Definition


Wind Chill Definition


Weather Definition


00:00 -8.8 -10.2 90 0.0 16 12   99.66   -14 LegendNANA
01:00 -9.0 -10.1 91 0.5 15 18   99.69   -16 LegendNANA
02:00 -11.7 -14.0 84 0.0 16 16   99.75   -19 LegendNANA
03:00 -14.2 -17.4 77 0.0 13 18   99.87   -23 LegendNANA
04:00 -16.1 -19.3 76 0.0 15 14   99.91   -24 LegendNANA
05:00 -15.0 -19.0 71 0.0 13 17   99.91   -23 LegendNANA
06:00 -14.9 -18.7 72 0.0 15 12   99.92   -22 LegendNANA
07:00 -17.5 -20.8 76 0.2 7 5   99.93   -21 LegendNANA
08:00 -15.5 -19.1 73 0.2 16 15   99.95   -24 LegendNANA
09:00 -15.0 -18.8 73 0.0 15 22   99.93   -25 LegendNANA
10:00 -15.9 -19.5 74 0.1 14 16   99.93   -24 LegendNANA
11:00 -14.8 -19.0 71 0.0 16 17   99.91   -23 LegendNANA
12:00 -15.2 -19.8 68 0.0 13 18   99.89   -24 LegendNANA
13:00 -17.1 -21.5 69 0.0 14 8   99.91   -23 LegendNANA
14:00 -18.1 -21.8 73 0.4 12 9   99.95   -24 LegendNANA
15:00 -17.9 -21.7 72 0.6 6 5   99.95   -22 LegendNANA
16:00 -19.7 -23.9 69 0.5 3 7   99.96   -25 LegendNANA
17:00 -19.0 -23.1 70 0.6 4 5   99.93   -23 LegendNANA
18:00 -19.3 -22.6 75 1.3 35 8   99.90   -25 LegendNANA
19:00 -20.8 -23.8 77 2.2 34 8   99.91   -27 LegendNANA
20:00 -22.2 -25.3 76 2.8 36 7   99.88   -28 LegendNANA
21:00 -21.8 -24.4 79 1.5 35 6   99.85   -27 LegendNANA
22:00 -24.7 -28.3 72 1.6 34 7   99.84   -31 LegendNANA
23:00 -20.1 -23.3 76 0.6 35 5   99.80   -24 LegendNANA

Notes on Data Quality.

Legend

  • E = Estimated
  • M = Missing
  • NA = Not Available*
  • [empty] = Indicates an unobserved value
Date modified: